Regional Weather Roundup
Issued by NWS Nashville, TN

Home | Current Version | Previous Version | Text Only | Print | Product List | Glossary On
Versions: 1 2 3 4 5 6 7 8 9 10 11 12 13 14 15 16 17 18 19 20 21 22 23 24 25 26 27 28 29 30 31 32 33 34 35 36 37 38 39 40 41 42 43 44 45 46 47 48 49 50
000
ASUS44 KOHX 010210
RWROHX
MIDDLE TENNESSEE HOURLY WEATHER ROUNDUP
NATIONAL WEATHER SERVICE NASHVILLE TN
900 PM CDT TUE JUN 30 2015

NOTE: "FAIR" INDICATES FEW OR NO CLOUDS BELOW 12,000 FEET WITH
NO SIGNIFICANT WEATHER AND/OR OBSTRUCTIONS TO VISIBILITY.

* THESE REPORTS ARE NOT UNDER NWS QUALITY CONTROL AND MAY NOT
  REPORT WEATHER SUCH AS PRECIPITATION AND FOG.


TNZ005>011-023>034-057-059-062>066-078-080-010300
...NORTHERN MIDDLE TENNESSEE...

CITY           SKY/WX    TMP DP  RH WIND       PRES   REMARKS
CLARKSVILLE    CLEAR     76  70  82 SW3       29.91R
CROSSVILLE     LGT RAIN  71  66  84 SW3       30.01R
GALLATIN         N/A     78  32  18 CALM      29.94
DICKSON        CLEAR     75  70  83 SW6       29.94R
LIVINGSTON     CLEAR     75  67  76 W5        29.97
NASHVILLE      CLOUDY    77  70  79 SW6       29.94R
ROCKWOOD       PTCLDY    67  67 100 CALM      30.00R
SMYRNA         CLEAR     76  70  82 SW3       29.96R
SPARTA         CLEAR     73  73 100 SW5       29.97R
$$
TNZ056-058-060-061-075>077-079-093>097-010300
...SOUTHERN MIDDLE TENNESSEE...

CITY           SKY/WX    TMP DP  RH WIND       PRES   REMARKS
COLUMBIA       CLEAR     75  73  94 S3        29.96R
LEWISBURG      PTCLDY    76  70  82 S5        29.97R
MCMINNVILLE    CLEAR     75  70  83 SW3       29.99R
SHELBYVILLE    CLEAR     75  72  88 S5        29.98R
TULLAHOMA      PTCLDY    73  68  83 SW5       30.01R
WINCHESTER     CLEAR     75  70  83 SW5       30.01R
$$


...KEY TO REMARKS...
VSB - VISIBILITY IN MILES
WCI - WIND CHILL INDEX
HX  - HEAT INDEX



USA.gov is the U.S. government's official web portal to all federal, state and local government web resources and services.